| time (UTC) | temp C | wind direction | speed KPH | gust KPH | rain 1hr cm | rain 24hr cm | rain mn cm | humidity % | barometer mb |
| 20260503223002 | 21 | 234 | 11.3 | 29.0 | 0.00 | 0.00 | 0.00 | 28 | 1004.0 |
| 20260503221606 | 21 | 236 | 8.0 | 25.7 | 0.00 | 0.00 | 0.00 | 27 | 1003.9 |
| 20260503220105 | 21 | 304 | 14.5 | 22.5 | 0.00 | 0.00 | 0.00 | 31 | 1003.8 |
| 20260503214559 | 21 | 234 | 11.3 | 25.7 | 0.00 | 0.00 | 0.00 | 34 | 1003.7 |
| 20260503213057 | 21 | 269 | 11.3 | 30.6 | 0.00 | 0.00 | 0.00 | 33 | 1003.7 |
| 20260503211557 | 21 | 244 | 8.0 | 20.9 | 0.00 | 0.00 | 0.00 | 35 | 1003.7 |
| 20260503210059 | 21 | 248 | 9.7 | 27.4 | 0.00 | 0.00 | 0.00 | 34 | 1003.7 |
| 20260503204607 | 21 | 240 | 12.9 | 24.1 | 0.00 | 0.00 | 0.00 | 35 | 1003.9 |
| 20260503203100 | 21 | 220 | 8.0 | 24.1 | 0.00 | 0.00 | 0.00 | 37 | 1004.0 |
| 20260503201553 | 21 | 259 | 8.0 | 25.7 | 0.00 | 0.00 | 0.00 | 35 | 1004.3 |
| 20260503200051 | 21 | 309 | 9.7 | 24.1 | 0.00 | 0.00 | 0.00 | 36 | 1004.3 |
| 20260503194605 | 21 | 267 | 8.0 | 25.7 | 0.00 | 0.00 | 0.00 | 37 | 1004.4 |
| 20260503193046 | 20 | 283 | 6.4 | 19.3 | 0.00 | 0.00 | 0.00 | 40 | 1004.5 |
| 20260503191544 | 20 | 244 | 9.7 | 27.4 | 0.00 | 0.00 | 0.00 | 41 | 1004.5 |
| 20260503190057 | 20 | 273 | 9.7 | 24.1 | 0.00 | 0.00 | 0.00 | 40 | 1004.6 |
| 20260503184540 | 20 | 326 | 6.4 | 33.8 | 0.00 | 0.00 | 0.00 | 41 | 1004.9 |
| 20260503183037 | 20 | 232 | 8.0 | 19.3 | 0.00 | 0.00 | 0.00 | 43 | 1004.9 |
| 20260503181535 | 19 | 297 | 8.0 | 16.1 | 0.00 | 0.00 | 0.00 | 44 | 1005.2 |
| 20260503180032 | 19 | 5 | 4.8 | 16.1 | 0.00 | 0.00 | 0.00 | 45 | 1005.2 |
| 20260503174528 | 18 | 252 | 4.8 | 17.7 | 0.00 | 0.00 | 0.00 | 45 | 1005.3 |
| 20260503173034 | 18 | 244 | 4.8 | 12.9 | 0.00 | 0.00 | 0.00 | 46 | 1005.4 |
| 20260503171522 | 17 | 230 | 4.8 | 17.7 | 0.00 | 0.00 | 0.00 | 47 | 1005.5 |
| 20260503081555 | 11 | 163 | 0.0 | 3.2 | 0.00 | 0.00 | 0.00 | 57 | 1008.0 |
| 20260503071542 | 12 | 161 | 1.6 | 4.8 | 0.00 | 0.00 | 0.00 | 58 | 1008.6 |
| 20260503054533 | 13 | 252 | 1.6 | 9.7 | 0.00 | 0.00 | 0.00 | 57 | 1010.4 |
| 20260503053020 | 14 | 225 | 1.6 | 4.8 | 0.00 | 0.00 | 0.00 | 51 | 1010.3 |
| 20260503051518 | 14 | 225 | 3.2 | 4.8 | 0.00 | 0.00 | 0.00 | 51 | 1010.2 |
| 20260503050017 | 14 | 225 | 1.6 | 6.4 | 0.00 | 0.00 | 0.00 | 50 | 1010.3 |
| 20260503044532 | 14 | 224 | 3.2 | 6.4 | 0.00 | 0.00 | 0.00 | 50 | 1010.4 |
| 20260503043014 | 13 | 201 | 1.6 | 4.8 | 0.00 | 0.00 | 0.00 | 49 | 1010.5 |
| 20260503041512 | 13 | 202 | 1.6 | 3.2 | 0.00 | 0.00 | 0.00 | 49 | 1010.8 |
| 20260503040010 | 13 | 203 | 1.6 | 4.8 | 0.00 | 0.00 | 0.00 | 48 | 1010.9 |
| 20260503034508 | 13 | 207 | 3.2 | 4.8 | 0.00 | 0.00 | 0.00 | 48 | 1011.3 |
| 20260503033005 | 13 | 209 | 1.6 | 3.2 | 0.00 | 0.00 | 0.00 | 49 | 1011.5 |
| 20260503031503 | 13 | 209 | 0.0 | 4.8 | 0.00 | 0.00 | 0.00 | 49 | 1011.8 |
| 20260503030004 | 13 | 211 | 1.6 | 4.8 | 0.00 | 0.00 | 0.00 | 49 | 1011.9 |
| 20260503024502 | 13 | 215 | 1.6 | 3.2 | 0.00 | 0.00 | 0.00 | 48 | 1012.0 |
| 20260503023001 | 13 | 215 | 1.6 | 4.8 | 0.00 | 0.00 | 0.00 | 47 | 1012.0 |
| 20260503021605 | 13 | 219 | 0.0 | 0.0 | 0.00 | 0.00 | 0.00 | 47 | 1012.0 |
| 20260503020105 | 14 | 219 | 0.0 | 0.0 | 0.00 | 0.00 | 0.00 | 45 | 1012.0 |
| 20260503014600 | 14 | 219 | 0.0 | 4.8 | 0.00 | 0.00 | 0.00 | 45 | 1012.0 |
| 20260503013103 | 14 | 221 | 1.6 | 3.2 | 0.00 | 0.00 | 0.00 | 44 | 1012.1 |
| 20260503011607 | 15 | 221 | 0.0 | 1.6 | 0.00 | 0.00 | 0.00 | 43 | 1012.2 |
| 20260503010100 | 15 | 222 | 1.6 | 6.4 | 0.00 | 0.00 | 0.00 | 42 | 1012.3 |
| 20260503004556 | 15 | 225 | 0.0 | 3.2 | 0.00 | 0.00 | 0.00 | 41 | 1012.3 |
| 20260503003054 | 15 | 227 | 1.6 | 6.4 | 0.00 | 0.00 | 0.00 | 41 | 1012.5 |
| 20260503001554 | 15 | 229 | 0.0 | 4.8 | 0.00 | 0.00 | 0.00 | 41 | 1012.7 |
| 20260503000107 | 15 | 229 | 1.6 | 11.3 | 0.00 | 0.00 | 0.00 | 40 | 1012.8 |
| 20260502234550 | 16 | 234 | 6.4 | 11.3 | 0.00 | 0.00 | 0.00 | 39 | 1012.9 |
| 20260502233048 | 15 | 230 | 4.8 | 11.3 | 0.00 | 0.00 | 0.00 | 40 | 1013.2 |
| 20260502231612 | 16 | 233 | 6.4 | 11.3 | 0.00 | 0.00 | 0.00 | 39 | 1013.4 |
| 20260502230046 | 16 | 257 | 9.7 | 19.3 | 0.00 | 0.00 | 0.00 | 39 | 1013.6 |
| 20260502224555 | 16 | 253 | 9.7 | 20.9 | 0.00 | 0.00 | 0.00 | 39 | 1013.7 |